Temp
20 20 20 20 20 20 20 20 20 20 20 20 20 20 20 20 20 20 20 20 19 19 19 19 19 19 19 19 19 19 19 19 19 19 19 19 19 19 19 19 19 19
20 20 20 20 21 21 20 20 20 21 20 20 20 20 20 20 20 20 20 20 20 19 19 19 19 19 19 19 19 19 19 19 19 19 19 19 19 19 19 20 20 20
20 20 20 21 21 21 21 20 20 20 20 20 20 20 20 20 20 20 20 20 20 20 20 20 19 19 19 19 19 19 19 19 19 19 19 19 19 19 19 19 20 20
20 20 21 21 21 21 21 20 20 20 20 20 20 20 20 20 20 20 20 20 20 20 20 20 19 19 19 19 19 19 19 19 19 19 19 19 19 19 19 19 19 19
20 20 20 20 20 20 20 20 20 20 20 20 20 20 20 20 20 20 20 20 20 20 20 20 19 19 19 19 19 19 19 19 19 19 19 19 19 19 19 19 19 19
20 20 20 20 20 20 20 20 20 20 20 20 20 20 20 20 20 20 20 20 20 20 20 20 20 19 19 19 19 19 19 19 19 19 19 19 19 19 19 19 19 19
20 20 20 20 20 20 20 20 20 20 20 20 20 20 20 20 20 20 20 20 20 20 19 20 20 20 19 19 19 19 19 19 19 19 19 19 19 19 19 19 19 19
20 20 20 20 20 20 20 20 20 20 20 20 20 20 20 20 20 20 20 19 19 19 19 19 19 19 19 19 19 19 19 19 19 19 19 19 19 19 19 19 19 19
20 20 20 20 20 20 20 20 20 20 20 20 20 20 20 20 20 20 19 19 19 19 19 19 19 19 19 19 18 19 19 19 19 19 19 19 19 19 19 18 18 18
19 19 19 19 19 20 20 20 19 19 20 20 20 20 20 20 20 20 19 19 19 19 19 19 19 19 19 18 18 19 19 19 19 19 19 19 19 18 18 18 18 18
19 19 19 19 19 20 20 19 19 19 19 20 20 20 20 19 19 19 19 19 19 19 19 19 19 19 19 19 18 19 19 19 19 19 19 19 18 18 18 18 18 19
19 18 19 19 20 20 20 19 19 19 20 20 19 19 19 19 19 19 19 19 19 19 19 19 19 19 19 18 18 18 19 19 19 19 19 19 18 18 18 18 19 19
19 19 19 19 20 20 19 19 20 20 20 20 19 19 19 19 19 19 19 19 18 18 19 19 18 18 18 18 18 18 18 19 19 19 19 19 18 18 18 18 19 18
19 19 19 19 19 19 19 19 20 20 20 19 19 18 18 19 19 18 18 18 18 18 19 19 19 19 19 18 18 18 18 19 19 19 19 18 18 18 18 18 18 18
20 19 19 19 19 19 19 19 19 20 20 19 18 18 18 18 18 18 18 18 18 18 19 19 19 19 19 18 18 18 18 18 19 19 19 18 18 18 19 18 18 18
19 19 19 19 19 19 19 19 20 20 19 18 18 18 18 18 18 18 18 18 18 18 18 19 19 19 18 18 18 18 18 18 18 18 18 18 18 18 18 18 18 18
19 19 19 19 19 19 19 20 19 19 18 17 17 17 18 18 18 18 18 18 18 18 18 18 18 18 18 18 18 18 18 18 18 18 18 18 18 18 18 18 18 18
19 19 19 19 19 19 19 19 18 18 17 17 17 17 17 18 17 17 17 18 18 18 18 18 18 18 18 18 18 18 18 18 18 18 18 18 18 18 18 18 18 18
19 19 19 19 19 18 18 18 17 17 18 18 17 17 17 18 17 18 18 18 18 18 18 18 18 18 18 18 18 18 18 18 18 18 18 18 18 18 18 18 18 18
19 19 19 18 18 18 18 18 18 18 18 18 17 17 18 18 18 18 18 18 18 18 18 18 18 17 17 17 18 18 18 18 18 18 18 18 18 18 18 18 18 18
19 18 18 18 18 18 18 18 18 18 18 18 18 17 17 17 17 18 18 18 18 18 17 17 17 17 17 17 17 17 17 17 17 17 17 17 17 17 17 17 17 17
19 18 18 18 18 18 18 18 18 18 18 18 18 17 17 17 17 17 18 18 18 18 17 17 17 17 17 17 17 17 17 17 17 17 17 17 17 17 17 17 17 17
19 19 18 18 18 18 18 18 18 18 18 18 18 18 17 17 17 17 17 17 17 17 17 17 17 17 17 17 17 17 17 17 17 17 17 17 17 16 16 16 16 17
18 18 19 18 19 19 18 18 18 18 18 18 18 18 18 18 18 17 17 17 17 17 17 17 17 17 17 17 16 16 16 16 16 16 16 16 16 16 16 16 16 16
18 18 19 18 18 19 19 19 18 18 18 18 18 18 18 18 17 17 17 17 17 17 17 17 17 17 16 16 16 16 16 16 16 17 17 17 17 17 16 15 15 15
18 18 18 18 18 18 18 18 18 18 18 18 18 18 18 18 17 17 17 17 17 17 17 16 16 16 16 16 16 15 16 16 17 17 18 17 17 17 16 15 15 15
Height
1544 1546 1547 1548 1549 1550 1551 1552 1553 1554 1555 1556 1556 1557 1558 1559 1559 1560 1560 1561 1561 1561 1562 1562 1562 1563 1563 1563 1564 1564 1565 1565 1565 1565 1565 1565 1564 1564 1564 1564 1563 1563
1542 1544 1545 1546 1547 1548 1549 1550 1551 1552 1553 1554 1555 1556 1556 1557 1558 1558 1558 1559 1559 1559 1560 1560 1561 1561 1561 1562 1562 1563 1563 1564 1564 1564 1563 1563 1563 1562 1562 1562 1562 1562
1540 1542 1543 1544 1545 1546 1548 1549 1550 1550 1551 1552 1553 1553 1554 1554 1555 1556 1556 1556 1556 1557 1558 1558 1559 1559 1560 1560 1561 1561 1562 1562 1562 1562 1562 1561 1561 1560 1560 1561 1561 1561
1538 1540 1541 1542 1543 1544 1546 1547 1548 1549 1549 1550 1551 1551 1552 1552 1553 1553 1553 1554 1554 1555 1555 1556 1556 1557 1558 1559 1559 1560 1560 1560 1561 1561 1560 1559 1559 1559 1559 1559 1559 1559
1536 1538 1539 1541 1542 1543 1544 1544 1545 1546 1547 1548 1549 1549 1550 1550 1550 1550 1551 1551 1552 1552 1553 1553 1554 1555 1556 1557 1557 1558 1558 1559 1559 1559 1558 1558 1558 1558 1558 1558 1558 1557
1534 1535 1537 1538 1540 1541 1542 1542 1543 1544 1545 1546 1547 1547 1548 1548 1548 1548 1548 1548 1549 1550 1550 1551 1551 1552 1553 1554 1555 1556 1556 1557 1557 1557 1556 1556 1556 1556 1556 1556 1556 1556
1531 1532 1534 1536 1537 1538 1539 1540 1542 1542 1543 1544 1545 1545 1546 1546 1545 1545 1545 1546 1546 1547 1548 1549 1549 1550 1551 1552 1553 1553 1554 1554 1555 1555 1554 1554 1554 1555 1555 1555 1555 1554
1528 1530 1531 1533 1534 1536 1537 1538 1539 1540 1541 1542 1542 1543 1543 1543 1543 1543 1543 1544 1545 1546 1547 1547 1548 1548 1549 1550 1550 1551 1551 1552 1552 1553 1553 1553 1553 1553 1553 1553 1553 1552
1526 1527 1528 1530 1531 1533 1535 1536 1537 1538 1539 1540 1540 1540 1541 1541 1541 1541 1542 1543 1543 1544 1544 1545 1546 1547 1548 1548 1549 1549 1549 1550 1550 1551 1551 1551 1551 1551 1551 1551 1551 1550
1524 1525 1526 1527 1529 1531 1532 1533 1535 1535 1536 1537 1538 1538 1539 1539 1539 1539 1540 1540 1541 1541 1542 1543 1544 1545 1546 1547 1547 1548 1547 1548 1548 1548 1549 1549 1549 1549 1549 1549 1549 1549
1523 1523 1524 1525 1526 1527 1529 1530 1532 1533 1534 1534 1535 1536 1536 1537 1537 1537 1537 1537 1538 1539 1540 1541 1542 1543 1544 1545 1546 1546 1546 1546 1546 1546 1547 1547 1547 1547 1547 1547 1547 1547
1520 1520 1522 1522 1523 1524 1525 1527 1528 1529 1530 1531 1532 1533 1534 1534 1534 1534 1535 1535 1536 1537 1538 1539 1539 1540 1542 1543 1544 1544 1544 1544 1544 1544 1545 1545 1545 1545 1545 1545 1545 1545
1516 1517 1518 1519 1520 1521 1522 1523 1524 1526 1527 1528 1530 1530 1531 1531 1532 1532 1533 1533 1534 1535 1536 1536 1537 1538 1539 1540 1541 1542 1542 1542 1542 1542 1543 1543 1543 1543 1543 1543 1543 1543
1513 1514 1515 1516 1518 1518 1519 1520 1522 1523 1524 1526 1527 1528 1528 1529 1529 1530 1531 1531 1532 1532 1533 1534 1534 1535 1536 1537 1539 1540 1541 1541 1541 1541 1541 1541 1542 1542 1541 1541 1541 1541
1512 1512 1513 1514 1515 1515 1517 1519 1520 1521 1522 1523 1524 1525 1526 1526 1527 1528 1528 1529 1529 1530 1530 1531 1531 1533 1534 1535 1537 1538 1539 1539 1539 1539 1539 1540 1540 1540 1540 1540 1540 1540
1511 1511 1511 1512 1512 1514 1516 1517 1518 1519 1520 1521 1522 1523 1523 1524 1525 1525 1526 1527 1527 1527 1528 1529 1529 1531 1532 1534 1535 1536 1537 1538 1537 1538 1538 1538 1538 1538 1538 1538 1539 1539
1510 1511 1511 1511 1512 1513 1514 1515 1516 1518 1519 1520 1520 1520 1521 1522 1523 1523 1524 1525 1526 1526 1527 1528 1529 1530 1531 1533 1534 1535 1536 1536 1536 1537 1537 1537 1537 1537 1537 1537 1537 1537
1511 1511 1511 1511 1512 1512 1513 1514 1516 1517 1517 1518 1518 1518 1519 1520 1521 1522 1522 1524 1525 1525 1526 1527 1528 1530 1531 1532 1533 1534 1535 1535 1535 1535 1535 1535 1535 1535 1536 1536 1535 1536
1512 1512 1511 1511 1511 1512 1512 1513 1514 1515 1515 1516 1516 1517 1518 1519 1520 1521 1521 1522 1523 1524 1525 1526 1528 1529 1530 1531 1532 1533 1534 1534 1534 1534 1534 1534 1534 1534 1534 1534 1534 1534
1513 1512 1511 1511 1511 1511 1512 1511 1512 1513 1513 1514 1515 1516 1517 1518 1519 1519 1520 1522 1523 1523 1524 1525 1527 1528 1529 1530 1531 1531 1532 1532 1532 1533 1533 1532 1532 1532 1532 1533 1533 1533
1513 1512 1511 1511 1510 1511 1511 1511 1511 1511 1512 1513 1514 1515 1516 1517 1517 1518 1519 1520 1522 1522 1523 1524 1526 1527 1527 1528 1529 1529 1530 1531 1531 1531 1531 1531 1531 1531 1531 1531 1531 1531
1512 1512 1511 1511 1510 1510 1510 1510 1510 1511 1511 1512 1513 1514 1515 1516 1517 1517 1518 1519 1521 1522 1523 1524 1525 1525 1526 1527 1527 1528 1528 1529 1529 1529 1529 1529 1529 1529 1529 1529 1529 1530
1512 1511 1511 1510 1510 1509 1509 1509 1509 1510 1510 1511 1512 1513 1514 1515 1516 1517 1518 1518 1519 1521 1521 1522 1523 1524 1525 1525 1526 1526 1527 1527 1527 1527 1526 1526 1527 1527 1527 1526 1527 1528
1513 1512 1511 1510 1509 1508 1508 1507 1508 1508 1509 1509 1510 1511 1512 1513 1514 1515 1517 1517 1518 1519 1520 1521 1522 1522 1523 1523 1524 1524 1524 1524 1524 1524 1524 1524 1524 1524 1524 1524 1525 1527
1514 1512 1511 1509 1508 1507 1506 1506 1506 1507 1507 1508 1509 1509 1510 1512 1512 1513 1514 1515 1516 1518 1518 1519 1520 1520 1521 1521 1521 1521 1521 1521 1521 1520 1520 1520 1520 1520 1521 1522 1523 1525
1514 1512 1510 1509 1508 1507 1506 1506 1506 1506 1507 1507 1507 1508 1509 1509 1510 1510 1511 1512 1514 1515 1515 1516 1517 1517 1518 1518 1518 1518 1518 1517 1517 1517 1517 1517 1517 1517 1519 1520 1521 1522
Wind_Speed
26 27 29 30 30 29 28 27 26 27 27 26 26 25 24 23 22 21 20 19 18 17 17 17 17 17 16 16 15 15 15 16 16 16 17 17 16 15 14 14 14 15
25 26 27 28 28 26 25 25 23 22 23 23 23 22 21 20 20 20 20 21 20 19 19 18 18 18 18 17 16 16 16 16 16 16 16 16 16 16 16 15 15 15
24 25 26 26 25 24 24 23 22 21 20 20 19 19 19 19 18 18 19 19 20 20 19 19 18 18 18 18 17 17 18 18 17 16 15 15 16 17 17 16 16 16
24 24 24 23 23 22 21 22 22 21 21 20 19 19 19 18 18 18 18 18 19 19 19 19 18 17 18 18 18 18 18 18 18 16 15 15 15 16 16 15 15 15
23 23 23 22 22 21 21 21 21 21 21 20 19 19 19 18 18 19 19 19 19 19 19 19 19 18 18 18 18 17 17 18 17 16 16 15 14 15 15 14 14 15
23 23 22 22 21 21 21 20 19 20 20 20 19 19 19 19 19 19 20 20 20 20 20 20 19 19 18 17 17 17 17 18 17 16 16 15 15 15 14 14 15 15
24 23 22 22 22 22 21 20 20 20 19 19 19 19 20 20 21 21 21 21 22 22 21 20 20 20 19 17 17 17 16 16 16 15 15 15 15 14 14 14 15 15
25 24 23 23 22 22 21 21 20 20 19 19 19 20 20 21 22 23 23 23 23 23 22 21 21 20 19 18 18 16 15 16 17 17 16 16 16 15 15 14 14 15
26 25 24 24 22 21 20 20 21 20 19 19 19 19 20 21 22 23 23 23 23 23 23 22 23 22 21 20 19 18 17 17 17 17 17 17 16 16 14 14 14 14
27 26 25 24 22 20 19 20 21 20 20 19 19 20 20 21 22 22 22 23 23 23 22 22 23 24 23 22 21 20 19 17 16 16 16 15 15 14 13 12 13 14
28 27 26 24 22 20 19 20 20 20 19 20 20 21 21 21 22 22 22 23 23 23 21 20 21 23 24 23 21 20 18 16 15 15 14 14 14 13 13 13 13 13
27 26 24 22 21 20 20 20 21 20 20 20 20 21 21 21 22 22 23 23 23 21 20 19 20 21 22 21 19 18 17 16 15 14 13 13 13 13 13 12 12 12
25 24 23 22 21 21 21 21 21 21 21 20 20 20 21 21 21 21 22 21 21 20 19 19 20 20 20 19 18 18 18 17 15 13 12 12 13 13 13 12 12 12
23 22 22 22 23 23 22 21 21 21 21 20 20 22 22 21 20 20 19 18 18 18 18 19 20 20 19 18 19 19 19 17 14 13 13 13 14 14 13 12 12 12
21 21 21 21 21 21 21 21 22 22 21 20 21 23 23 21 19 19 18 17 18 18 18 19 20 18 17 17 19 19 17 15 13 13 14 15 15 14 12 11 11 11
19 19 19 19 20 20 20 21 22 21 21 20 21 22 21 20 19 19 19 19 19 19 20 20 18 17 16 17 17 16 15 14 13 14 14 15 15 13 10 10 11 10
16 16 17 18 19 20 19 20 20 19 19 18 19 19 19 18 18 18 18 18 18 19 19 18 17 16 16 15 15 14 13 12 13 14 14 13 13 11 10 10 10 10
15 15 16 18 18 18 18 18 17 16 16 15 15 15 15 15 15 15 15 15 16 16 16 16 15 15 14 14 14 13 13 12 13 13 13 12 11 11 11 10 10 10
15 15 15 15 16 16 16 15 13 12 12 11 11 10 11 11 11 11 12 13 14 14 14 14 13 13 12 12 12 13 13 13 13 13 13 13 12 12 12 11 11 11
15 15 14 14 15 14 12 11 10 10 10 9 9 9 10 11 11 11 12 12 12 12 11 11 11 10 10 11 12 12 13 13 13 14 14 14 15 15 15 14 13 13
17 16 15 14 13 12 11 10 10 10 9 9 9 10 11 11 10 9 9 9 9 8 7 7 8 9 10 10 11 11 12 12 13 14 15 15 16 16 17 17 17 16
20 18 16 15 13 12 12 12 12 11 10 11 11 11 11 10 9 8 8 9 8 7 7 8 9 9 10 11 11 11 11 12 14 15 16 17 17 16 18 19 19 18
21 19 17 16 14 13 13 13 13 13 13 13 13 13 12 10 10 9 9 9 9 8 9 10 11 11 11 12 12 13 14 15 17 18 19 19 18 18 18 19 19 18
21 19 18 17 15 14 14 15 15 14 14 14 13 13 12 11 11 11 11 11 11 11 11 12 13 13 14 14 15 16 17 18 18 18 18 18 19 19 20 21 19 18
20 19 18 18 17 17 16 16 16 16 15 14 13 12 12 12 13 14 15 15 15 15 15 15 16 16 16 16 17 18 19 19 18 18 17 16 16 17 20 22 21 19
20 20 20 19 19 18 17 17 16 16 15 14 13 13 12 13 15 16 18 18 18 17 17 17 17 17 16 17 17 17 18 18 18 17 15 13 13 14 18 21 21 20
Wind_Direction
219 215 214 216 217 219 221 222 221 221 225 229 233 237 241 244 247 249 249 246 243 244 247 250 252 255 257 256 256 256 258 261 263 265 264 264 265 266 265 264 266 270
220 217 216 217 219 221 223 225 226 225 225 228 232 234 237 240 242 245 247 247 247 247 248 247 247 252 255 253 253 256 260 264 266 267 265 265 266 267 267 264 263 267
222 219 217 218 221 223 224 226 228 229 228 231 234 235 237 240 243 245 245 245 248 249 249 249 248 252 253 249 250 255 260 264 267 268 266 265 268 270 270 268 266 265
222 221 220 221 222 224 227 229 229 230 232 233 236 239 241 243 245 244 242 240 242 245 247 249 252 252 249 247 250 254 257 260 263 264 265 265 270 274 274 272 270 268
222 223 223 223 224 225 228 231 230 231 232 234 237 240 241 242 242 241 239 237 238 242 245 248 250 249 246 247 251 255 257 258 259 260 264 269 274 276 274 271 270 268
222 223 223 224 225 227 230 230 229 229 232 235 237 239 240 240 240 239 238 238 239 241 242 244 246 244 244 248 253 258 260 261 261 262 263 267 271 271 270 269 269 267
220 221 222 223 225 228 230 228 228 229 231 235 236 237 239 239 240 240 239 240 241 242 243 244 244 244 244 248 253 258 262 266 268 267 264 263 263 265 266 268 269 268
220 220 221 223 224 227 229 227 227 229 232 234 235 236 237 238 240 241 241 242 243 245 246 245 244 244 244 247 251 256 264 271 271 266 264 262 262 266 271 272 270 268
220 219 220 222 224 225 228 228 228 230 233 234 233 233 235 238 239 241 242 242 243 244 245 244 243 241 241 245 249 255 264 270 267 263 264 264 267 272 277 278 274 270
220 220 220 220 221 223 226 228 229 231 232 232 232 234 236 238 239 240 241 240 240 241 244 246 245 241 240 243 248 256 263 264 261 260 263 265 270 273 275 275 273 272
222 222 221 218 219 222 224 226 228 230 231 232 234 236 237 237 236 237 238 239 240 242 245 248 247 242 240 241 247 255 260 259 256 256 257 262 268 272 273 273 273 272
225 225 223 220 222 226 226 225 226 229 230 232 234 235 235 234 233 235 237 239 242 244 246 247 245 241 238 239 246 252 255 254 250 248 251 258 263 266 269 272 274 272
224 225 226 225 227 229 228 226 227 230 230 230 235 237 234 232 232 234 236 238 241 242 244 244 242 238 236 238 243 249 251 249 243 241 247 253 257 260 264 270 274 272
222 223 225 226 227 227 228 228 231 234 232 230 236 239 236 232 230 230 231 234 238 241 242 241 238 234 232 234 241 247 249 246 242 242 246 252 256 257 259 265 269 270
222 222 223 225 228 229 230 231 233 235 233 232 234 234 233 231 228 226 229 233 236 236 235 234 233 232 229 231 236 240 243 244 246 247 250 256 259 258 260 264 267 268
224 222 224 226 230 231 229 229 231 231 230 230 229 228 228 228 227 227 230 233 234 231 229 228 228 227 226 227 230 233 239 245 249 250 252 255 255 256 261 263 263 264
223 223 225 226 228 229 226 226 227 228 229 227 224 224 226 226 228 230 230 232 231 228 225 225 224 221 222 225 227 233 240 244 247 249 248 248 250 253 255 257 261 264
222 222 223 222 223 227 229 229 226 224 225 224 222 225 227 226 229 231 228 226 225 222 222 224 225 223 222 226 231 237 243 245 247 249 248 248 253 256 256 260 266 268
218 219 219 217 220 227 230 227 220 213 212 214 216 219 220 220 224 225 219 214 213 212 215 221 224 224 224 230 236 241 245 246 247 250 253 255 258 261 261 263 265 266
219 216 213 212 213 216 217 211 203 196 192 194 199 200 200 204 211 212 208 208 210 211 212 217 220 223 228 233 238 240 242 244 248 253 258 260 263 265 264 262 262 263
212 207 203 202 200 198 196 190 182 178 179 186 190 187 189 194 199 199 197 201 207 210 213 218 221 224 228 231 233 237 240 245 249 253 257 259 260 262 264 263 263 260
203 198 195 194 191 187 183 181 180 179 181 184 179 174 177 182 185 188 191 197 203 207 210 214 217 221 227 231 235 240 246 251 255 257 258 257 256 259 263 264 263 259
198 195 193 190 188 184 179 180 181 180 179 179 175 173 176 184 193 201 206 211 215 217 215 215 219 226 234 241 247 253 259 264 267 266 264 262 260 258 258 260 260 257
198 197 194 189 186 183 179 179 179 177 178 179 180 182 186 197 211 218 224 228 229 230 227 224 228 235 241 249 256 261 267 271 273 272 269 267 263 255 249 251 253 252
202 201 197 191 188 188 187 186 183 183 185 188 193 201 207 216 225 229 232 236 237 237 236 235 238 242 248 254 261 266 271 275 278 277 274 270 264 250 241 242 246 247
209 206 201 196 194 192 192 191 189 189 193 199 207 216 222 230 236 237 236 237 239 241 242 243 245 248 253 259 267 273 277 278 278 276 271 264 256 244 235 236 241 245